FW0960 Weather Reports


time (UTC)temp
F
wind
direction
speed
knots
gust
knots
rain 1hr
in
rain 24hr
in
rain mn
in
humidity
%
barometer
mb
20260506062454 64 229 0.0 0.9 0.00 0.00 0.00 82 1013.5
20260506061947 64 240 0.0 0.9 0.00 0.00 0.00 82 1013.5
20260506061445 64 239 0.0 1.7 0.00 0.00 0.00 82 1013.5
20260506060932 64 203 0.0 1.7 0.00 0.00 0.00 82 1013.5
20260506060426 64 179 0.0 1.7 0.00 0.00 0.00 82 1013.5
20260506051407 65 160 0.0 1.7 0.00 0.00 0.00 80 1013.8
20260506050911 65 163 0.0 1.7 0.00 0.00 0.00 80 1013.9
20260506050406 65 162 0.0 1.7 0.00 0.00 0.00 80 1014.0
20260506044905 66 236 0.0 1.7 0.00 0.00 0.00 80 1014.0
20260506044405 66 132 0.0 1.7 0.00 0.00 0.00 80 1014.0
20260506041856 66 164 0.0 2.6 0.00 0.00 0.00 79 1014.0
20260506040844 66 127 0.9 1.7 0.00 0.00 0.00 79 1013.9
20260506040342 66 200 0.0 1.7 0.00 0.00 0.00 79 1013.9
20260506035842 66 283 0.0 1.7 0.00 0.00 0.00 79 1013.9
20260506035342 66 257 0.9 1.7 0.00 0.00 0.00 79 1014.0
20260506034336 66 238 0.9 1.7 0.00 0.00 0.00 79 1013.9
20260506033837 67 346 0.9 1.7 0.00 0.00 0.00 78 1014.0
20260506033339 67 351 0.0 1.7 0.00 0.00 0.00 78 1014.0
20260506032833 67 305 0.0 0.9 0.00 0.00 0.00 78 1014.0
20260506032333 67 295 0.0 1.7 0.00 0.00 0.00 78 1013.9
20260506031831 67 274 0.9 1.7 0.00 0.00 0.00 78 1014.0
20260506031330 67 316 0.0 1.7 0.00 0.00 0.00 78 1014.0
20260506030832 67 32 0.0 0.9 0.00 0.00 0.00 78 1014.0
20260506030333 67 306 0.0 1.7 0.00 0.00 0.00 77 1014.0
20260506025832 67 290 0.0 1.7 0.00 0.00 0.00 77 1014.0
20260506025331 67 38 0.0 2.6 0.00 0.00 0.00 77 1014.0
20260506024833 67 69 0.0 2.6 0.00 0.00 0.00 77 1014.1
20260506024334 67 313 0.0 1.7 0.00 0.00 0.00 77 1014.0
20260506023832 67 227 0.0 1.7 0.00 0.00 0.00 77 1014.0
20260506023333 67 158 0.0 1.7 0.00 0.00 0.00 77 1014.2
20260506022833 67 158 0.0 1.7 0.00 0.00 0.00 77 1014.0
20260506022335 68 92 0.0 2.6 0.00 0.00 0.00 76 1014.0
20260506021829 68 109 0.0 2.6 0.00 0.00 0.00 76 1014.0
20260506021330 68 307 0.0 1.7 0.00 0.00 0.00 75 1014.2
20260506020829 68 156 0.0 1.7 0.00 0.00 0.00 76 1014.0
20260506020331 68 265 0.0 1.7 0.00 0.00 0.00 75 1014.0
20260506015330 68 42 0.0 0.0 0.00 0.00 0.00 75 1013.9
20260506014838 68 42 0.0 0.0 0.00 0.00 0.00 75 1013.9
20260506014330 68 42 0.0 0.0 0.00 0.00 0.00 75 1014.0
20260506013831 68 42 0.0 0.0 0.00 0.00 0.00 76 1013.9
20260506013338 68 49 0.0 0.0 0.00 0.00 0.00 76 1013.9
20260506012330 68 57 0.0 0.9 0.00 0.00 0.00 76 1013.8
20260506011831 68 54 0.0 0.9 0.00 0.00 0.00 76 1013.8
20260506011330 68 47 0.0 0.9 0.00 0.00 0.00 77 1013.7
20260506010832 68 53 0.0 0.0 0.00 0.00 0.00 77 1013.7
20260506010330 68 53 0.0 0.0 0.00 0.00 0.00 77 1013.7
20260506005337 68 41 0.0 0.0 0.00 0.00 0.00 77 1013.6
20260506004839 68 41 0.0 0.0 0.00 0.00 0.00 77 1013.4
20260506004335 68 41 0.0 0.0 0.00 0.00 0.00 77 1013.4
20260506003830 68 40 0.0 0.0 0.00 0.00 0.00 77 1013.4
20260506003332 68 40 0.0 0.0 0.00 0.00 0.00 77 1013.2
20260506002330 68 40 0.0 0.0 0.00 0.00 0.00 76 1013.2
20260506001834 68 40 0.0 0.9 0.00 0.00 0.00 76 1013.1
20260506000829 69 41 0.0 0.0 0.00 0.00 0.00 75 1013.1
20260506000332 69 41 0.0 0.0 0.00 0.00 0.00 75 1013.1
20260505235834 69 41 0.0 0.9 0.00 0.00 0.00 74 1013.1
20260505235331 69 41 0.9 0.9 0.00 0.00 0.00 74 1013.0
20260505234327 69 53 0.9 1.7 0.00 0.00 0.00 72 1013.0
20260505233828 69 76 0.0 1.7 0.00 0.00 0.00 72 1012.9
20260505233324 70 86 0.0 1.7 0.00 0.00 0.00 71 1012.9
20260505232826 70 89 0.0 1.7 0.00 0.00 0.00 70 1012.8
20260505232325 70 103 0.0 1.7 0.00 0.00 0.00 70 1013.0
20260505231825 70 104 0.0 0.0 0.00 0.00 0.00 69 1012.9
20260505230343 71 112 0.9 2.6 0.00 0.00 0.00 68 1012.9
20260505225320 71 355 0.9 1.7 0.00 0.00 0.00 68 1012.8
20260505224821 72 350 0.9 1.7 0.00 0.00 0.00 67 1012.7
20260505223819 72 345 0.9 1.7 0.00 0.00 0.00 66 1012.8
20260505222812 73 355 0.9 1.7 0.00 0.00 0.00 65 1012.8
20260505221816 73 355 0.9 1.7 0.00 0.00 0.00 65 1012.9
20260505220810 74 314 0.9 2.6 0.00 0.00 0.00 64 1012.8
20260505220316 74 278 0.9 2.6 0.00 0.00 0.00 64 1012.8
20260505215807 74 355 0.9 1.7 0.00 0.00 0.00 64 1012.6
20260505215305 74 298 0.9 1.7 0.00 0.00 0.00 63 1012.5
20260505214805 74 344 0.9 1.7 0.00 0.00 0.00 63 1012.6
20260505213759 75 350 0.9 1.7 0.00 0.00 0.00 63 1012.5
20260505212246 75 355 0.9 1.7 0.00 0.00 0.00 61 1012.4
20260505211744 76 355 0.9 1.7 0.00 0.00 0.00 61 1012.6
20260505211242 76 351 0.9 1.7 0.00 0.00 0.00 61 1012.7
20260505210244 76 0 0.9 2.6 0.00 0.00 0.00 60 1012.6
20260505205238 77 350 0.9 2.6 0.00 0.00 0.00 59 1012.4
20260505204739 77 355 0.9 2.6 0.00 0.00 0.00 60 1012.3
20260505204238 77 355 0.9 1.7 0.00 0.00 0.00 60 1012.3
20260505203745 77 351 0.0 1.7 0.00 0.00 0.00 61 1012.4
20260505203235 77 355 0.9 1.7 0.00 0.00 0.00 60 1012.4
20260505202739 78 355 0.9 1.7 0.00 0.00 0.00 60 1012.5
20260505202236 78 355 0.9 1.7 0.00 0.00 0.00 58 1012.5
20260505201742 78 355 0.9 1.7 0.00 0.00 0.00 58 1012.7
20260505201230 79 355 0.9 1.7 0.00 0.00 0.00 58 1012.7
20260505200730 79 351 0.9 1.7 0.00 0.00 0.00 57 1012.7
20260505200231 79 351 0.9 1.7 0.00 0.00 0.00 57 1012.8
20260505195732 79 355 0.9 2.6 0.00 0.00 0.00 57 1012.7
20260505195229 79 350 0.9 2.6 0.00 0.00 0.00 57 1012.8
20260505194216 80 39 0.9 2.6 0.00 0.00 0.00 56 1012.7
20260505193718 80 72 0.9 2.6 0.00 0.00 0.00 56 1012.8
20260505192712 83 0 0.9 3.5 0.00 0.00 0.00 49 1012.9
20260505192211 83 344 0.9 3.5 0.00 0.00 0.00 40 1012.9
20260505191205 83 314 0.9 1.7 0.00 0.00 0.00 41 1012.9
20260505190702 83 266 0.9 1.7 0.00 0.00 0.00 42 1013.0
20260505190203 83 305 0.9 2.6 0.00 0.00 0.00 40 1012.9
20260505185702 83 213 0.9 2.6 0.00 0.00 0.00 39 1013.0
20260505183709 82 111 0.9 3.5 0.00 0.00 0.00 48 1012.9
20260505183204 82 150 0.9 2.6 0.00 0.00 0.00 46 1013.0
20260505182728 82 331 0.0 1.7 0.00 0.00 0.00 47 1013.1
20260505182203 82 297 0.9 3.5 0.00 0.00 0.00 51 1013.0
20260505181209 82 166 0.9 3.5 0.00 0.00 0.00 49 1013.2
20260505180711 82 74 0.9 3.5 0.00 0.00 0.00 48 1013.2
20260505180206 82 252 0.0 2.6 0.00 0.00 0.00 51 1013.2
20260505175657 82 109 0.0 2.6 0.00 0.00 0.00 49 1013.3
20260505175150 81 198 0.9 5.2 0.00 0.00 0.00 52 1013.4
20260505174648 81 333 0.9 5.2 0.00 0.00 0.00 48 1013.4
20260505173636 81 127 0.9 5.2 0.00 0.00 0.00 49 1013.3
20260505173138 81 123 0.9 3.5 0.00 0.00 0.00 49 1013.4
20260505172640 80 119 0.9 3.5 0.00 0.00 0.00 49 1013.4
20260505172138 80 133 0.9 4.3 0.00 0.00 0.00 49 1013.4
20260505171137 80 185 0.9 3.5 0.00 0.00 0.00 48 1013.4
20260505170135 80 105 0.9 2.6 0.00 0.00 0.00 49 1013.4
20260505165634 80 225 0.0 2.6 0.00 0.00 0.00 51 1013.5
20260505165143 80 148 0.0 2.6 0.00 0.00 0.00 52 1013.6
20260505164135 79 153 0.0 3.5 0.00 0.00 0.00 49 1013.5
20260505163636 79 130 0.9 3.5 0.00 0.00 0.00 51 1013.5
20260505162633 78 180 0.0 2.6 0.00 0.00 0.00 51 1013.7
20260505162138 78 133 0.0 2.6 0.00 0.00 0.00 53 1013.8
20260505161633 78 146 0.0 2.6 0.00 0.00 0.00 53 1013.9
20260505161129 78 150 0.0 2.6 0.00 0.00 0.00 53 1013.8
20260505160631 78 181 0.9 1.7 0.00 0.00 0.00 53 1014.0
20260505160133 77 165 0.9 2.6 0.00 0.00 0.00 54 1014.0
20260505153144 76 219 0.0 3.5 0.00 0.00 0.00 57 1013.9
20260505151629 75 161 0.9 3.5 0.00 0.00 0.00 56 1014.0
20260505151128 74 99 0.9 3.5 0.00 0.00 0.00 56 1014.0
20260505150625 74 117 0.9 2.6 0.00 0.00 0.00 58 1014.1
20260505150124 74 182 0.9 2.6 0.00 0.00 0.00 58 1014.1
20260505140605 71 103 0.9 2.6 0.00 0.00 0.00 63 1014.3
20260505124604 62 117 0.0 2.6 0.00 0.00 0.00 85 1014.2
20260505124103 61 162 0.0 3.5 0.00 0.00 0.00 85 1014.1
20260505123101 62 163 0.9 3.5 0.00 0.00 0.00 84 1014.1
20260505122604 62 113 0.0 1.7 0.00 0.00 0.00 84 1014.1
20260505122104 63 90 0.0 3.5 0.00 0.00 0.00 82 1014.1
20260505120603 64 193 0.9 6.1 0.00 0.00 0.00 77 1014.1
20260505120100 63 43 0.0 6.1 0.00 0.00 0.00 77 1014.1
20260505115601 63 153 0.0 7.8 0.00 0.00 0.00 78 1014.1
20260505115104 63 151 0.0 7.8 0.00 0.00 0.00 77 1014.1
20260505114105 63 139 0.0 3.5 0.00 0.00 0.00 78 1014.1
20260505113605 62 155 0.0 3.5 0.00 0.00 0.00 78 1014.1
20260505113103 62 178 0.0 1.7 0.00 0.00 0.00 78 1014.1
20260505112555 62 144 0.0 2.6 0.00 0.00 0.00 79 1014.0
20260505112059 62 153 0.9 2.6 0.00 0.00 0.00 79 1014.0
20260505111547 62 153 0.0 3.5 0.00 0.00 0.00 79 1014.1
20260505111044 62 165 0.0 4.3 0.00 0.00 0.00 79 1014.0
20260505110538 62 162 0.0 4.3 0.00 0.00 0.00 79 1014.1
20260505101035 62 131 0.0 1.7 0.00 0.00 0.00 77 1013.6
20260505100533 62 123 0.0 3.5 0.00 0.00 0.00 77 1013.5
20260505095032 62 142 0.0 0.0 0.00 0.00 0.00 77 1013.3
20260505094533 62 142 0.0 0.0 0.00 0.00 0.00 78 1013.3
20260505093534 62 142 0.0 0.0 0.00 0.00 0.00 78 1013.2
20260505093029 61 142 0.0 0.0 0.00 0.00 0.00 79 1013.2
20260505092524 61 142 0.0 0.0 0.00 0.00 0.00 79 1013.1
20260505092032 61 142 0.0 0.0 0.00 0.00 0.00 79 1013.1
20260505091526 61 142 0.0 0.0 0.00 0.00 0.00 80 1013.1
20260505091028 61 142 0.0 0.0 0.00 0.00 0.00 80 1013.1
20260505090028 62 142 0.0 0.9 0.00 0.00 0.00 80 1013.0
20260505084527 62 146 0.0 2.6 0.00 0.00 0.00 81 1013.1
20260505084019 62 150 0.0 1.7 0.00 0.00 0.00 81 1013.1
20260505083524 61 172 0.0 1.7 0.00 0.00 0.00 83 1013.1
20260505083017 61 171 0.0 1.7 0.00 0.00 0.00 83 1013.1
20260505082518 61 143 0.0 1.7 0.00 0.00 0.00 83 1013.1
20260505081508 60 155 0.0 1.7 0.00 0.00 0.00 85 1013.1
20260505081011 60 155 0.0 1.7 0.00 0.00 0.00 86 1013.1
20260505080512 60 127 0.0 1.7 0.00 0.00 0.00 86 1013.1
20260505080010 60 141 0.0 1.7 0.00 0.00 0.00 87 1013.1
20260505075503 59 136 0.0 0.9 0.00 0.00 0.00 88 1013.1
20260505075001 59 140 0.0 1.7 0.00 0.00 0.00 88 1013.2
20260505074503 59 140 0.0 1.7 0.00 0.00 0.00 88 1013.1
20260505074003 59 190 0.0 3.5 0.00 0.00 0.00 89 1013.1
20260505073502 59 197 0.0 3.5 0.00 0.00 0.00 89 1013.2
20260505073004 59 205 0.0 1.7 0.00 0.00 0.00 89 1013.0
20260505072502 59 87 0.0 4.3 0.00 0.00 0.00 89 1013.0
20260505072003 59 99 0.0 4.3 0.00 0.00 0.00 90 1012.9
20260505071503 59 284 0.0 1.7 0.00 0.00 0.00 90 1012.9
20260505070509 59 153 0.0 2.6 0.00 0.00 0.00 90 1012.8